EW4685 Weather Reports


Display with metric or nautical units.
time (UTC)temp
F
wind
direction
speed
MPH
gust
MPH
rain 1hr
in
rain 24hr
in
rain mn
in
humidity
%
barometer
mb
20221209001205 59 170 1.0 6.0 0.00 0.00 0.00 44 1013.2
20221209000701 59 279 2.0 8.0 0.00 0.00 0.00 45 1013.4
20221209000203 59 219 2.0 8.0 0.00 0.00 0.00 44 1013.4
20221208235701 60 230 1.0 5.0 0.00 0.00 0.00 44 1013.4
20221208235429 59 202 1.0 4.0 0.00 0.00 0.00 43 1013.4
20221208234930 58 317 1.0 5.0 0.00 0.00 0.00 45 1013.4
20221208234433 58 193 2.0 7.0 0.00 0.00 0.00 45 1013.5
20221208233656 58 176 2.0 7.0 0.00 0.00 0.00 45 1013.5
20221208233157 57 123 1.0 6.0 0.00 0.00 0.00 44 1013.5
20221208232653 57 97 1.0 6.0 0.00 0.00 0.00 43 1013.5
20221208232154 56 126 1.0 6.0 0.00 0.00 0.00 45 1013.6
20221208231653 56 232 3.0 9.0 0.00 0.00 0.00 45 1013.6
20221208231153 56 212 2.0 9.0 0.00 0.00 0.00 45 1013.6
20221208230653 56 123 2.0 8.0 0.00 0.00 0.00 46 1013.6
20221208230152 55 218 2.0 8.0 0.00 0.00 0.00 47 1013.6
20221208225653 55 196 1.0 8.0 0.00 0.00 0.00 45 1013.7
20221208225154 55 107 2.0 8.0 0.00 0.00 0.00 47 1013.7
20221208224653 55 207 2.0 8.0 0.00 0.00 0.00 46 1013.8
20221208224149 55 119 2.0 6.0 0.00 0.00 0.00 46 1013.8
20221208223919 55 93 2.0 6.0 0.00 0.00 0.00 46 1013.8
20221208223149 55 164 2.0 8.0 0.00 0.00 0.00 46 1013.9
20221208222649 54 240 2.0 8.0 0.00 0.00 0.00 47 1013.9
20221208222149 53 228 3.0 9.0 0.00 0.00 0.00 47 1013.9
20221208221648 53 214 2.0 9.0 0.00 0.00 0.00 46 1014.0
20221208221149 53 168 2.0 6.0 0.00 0.00 0.00 47 1013.9
20221208220649 53 131 2.0 5.0 0.00 0.00 0.00 48 1014.0
20221208220149 52 206 2.0 9.0 0.00 0.00 0.00 49 1014.0
20221208215650 52 143 3.0 9.0 0.00 0.00 0.00 50 1014.1
20221208215148 51 202 3.0 9.0 0.00 0.00 0.00 51 1014.1
20221208214649 51 224 3.0 9.0 0.00 0.00 0.00 50 1014.1
20221208214149 51 196 2.0 11.0 0.00 0.00 0.00 51 1014.0
20221208213649 51 210 2.0 11.0 0.00 0.00 0.00 52 1014.1
20221208213148 51 152 3.0 9.0 0.00 0.00 0.00 52 1014.1
20221208212651 51 213 2.0 10.0 0.00 0.00 0.00 52 1014.1
20221208212148 51 116 2.0 10.0 0.00 0.00 0.00 52 1014.1
20221208211649 51 190 2.0 7.0 0.00 0.00 0.00 52 1014.1
20221208211148 50 147 1.0 7.0 0.00 0.00 0.00 52 1014.0
20221208210649 50 125 1.0 7.0 0.00 0.00 0.00 53 1014.0
20221208210148 49 148 2.0 8.0 0.00 0.00 0.00 55 1013.9
20221208205648 49 144 3.0 9.0 0.00 0.00 0.00 55 1013.8
20221208205149 49 149 2.0 9.0 0.00 0.00 0.00 56 1013.8
20221208204650 49 200 2.0 7.0 0.00 0.00 0.00 56 1013.7
20221208204149 48 249 1.0 6.0 0.00 0.00 0.00 56 1013.7
20221208203648 48 231 1.0 7.0 0.00 0.00 0.00 59 1013.6
20221208203149 47 69 2.0 7.0 0.00 0.00 0.00 59 1013.6
20221208202919 47 118 1.0 6.0 0.00 0.00 0.00 62 1013.4
20221208202148 46 149 0.0 6.0 0.00 0.00 0.00 62 1013.2
20221208201649 46 197 0.0 4.0 0.00 0.00 0.00 65 1013.1
20221208201148 44 112 0.0 4.0 0.00 0.00 0.00 70 1013.1
20221208200649 44 199 0.0 1.0 0.00 0.00 0.00 71 1012.9
20221208200150 43 133 0.0 4.0 0.00 0.00 0.00 72 1012.8
20221208195651 43 108 0.0 4.0 0.00 0.00 0.00 73 1012.7
20221208195147 43 154 0.0 3.0 0.00 0.00 0.00 74 1012.7
20221208194913 42 117 0.0 3.0 0.00 0.00 0.00 75 1012.6
20221208194407 42 168 0.0 1.0 0.00 0.00 0.00 76 1012.5
20221208193902 41 177 0.0 1.0 0.00 0.00 0.00 77 1012.5
20221208193357 41 136 0.0 1.0 0.00 0.00 0.00 77 1012.5
20221208192619 41 136 0.0 1.0 0.00 0.00 0.00 77 1012.4
20221208192112 41 106 0.0 2.0 0.00 0.00 0.00 77 1012.4
20221208191838 40 204 0.0 2.0 0.00 0.00 0.00 78 1012.4
20221208191100 40 110 0.0 1.0 0.00 0.00 0.00 78 1012.4
20221208190554 40 77 0.0 1.0 0.00 0.00 0.00 79 1012.4
20221208190321 40 76 0.0 1.0 0.00 0.00 0.00 79 1012.4
20221208185543 40 59 0.0 1.0 0.00 0.00 0.00 79 1012.3
20221208185035 40 55 0.0 1.0 0.00 0.00 0.00 80 1012.3
20221208184529 40 55 0.0 1.0 0.00 0.00 0.00 80 1012.2
20221208184256 39 55 0.0 1.0 0.00 0.00 0.00 80 1012.2
20221208184020 39 66 0.0 1.0 0.00 0.00 0.00 81 1012.2
20221208183012 39 181 0.0 1.0 0.00 0.00 0.00 81 1012.1
20221208182508 39 199 0.0 0.0 0.00 0.00 0.00 80 1012.2
20221208182234 40 199 0.0 1.0 0.00 0.00 0.00 79 1012.1
20221208181726 40 199 0.0 1.0 0.00 0.00 0.00 78 1012.0
20221208180948 40 199 0.0 0.0 0.00 0.00 0.00 77 1012.1
20221208180442 41 199 0.0 3.0 0.00 0.00 0.00 77 1012.1
20221208175937 40 199 0.0 3.0 0.00 0.00 0.00 77 1012.0
20221208175704 40 166 0.0 1.0 0.00 0.00 0.00 77 1012.0
20221208175156 40 164 0.0 0.0 0.00 0.00 0.00 76 1011.9
20221208174420 41 164 0.0 1.0 0.00 0.00 0.00 76 1011.8
20221208174148 41 164 0.0 1.0 0.00 0.00 0.00 76 1011.8
20221208173506 41 199 0.0 1.0 0.00 0.00 0.00 76 1011.8
20221208172629 41 154 0.0 0.0 0.00 0.00 0.00 76 1011.8
20221208172116 41 163 0.0 1.0 0.00 0.00 0.00 75 1011.8
20221208171338 41 178 0.0 1.0 0.00 0.00 0.00 75 1011.8
20221208170832 41 165 0.0 1.0 0.00 0.00 0.00 75 1011.7
20221208170328 41 84 0.0 0.0 0.00 0.00 0.00 74 1011.8
20221208165823 41 82 0.0 0.0 0.00 0.00 0.00 74 1011.7
20221208165817 42 82 0.0 0.0 0.00 0.00 0.00 73 1011.7
20221208164807 42 82 0.0 0.0 0.00 0.00 0.00 73 1011.7
20221208164302 42 82 0.0 0.0 0.00 0.00 0.00 73 1011.8
20221208164030 42 79 0.0 2.0 0.00 0.00 0.00 72 1011.7
20221208163250 42 79 0.0 4.0 0.00 0.00 0.00 73 1011.7
20221208162747 42 232 0.0 4.0 0.00 0.00 0.00 73 1011.7
20221208162510 42 68 0.0 0.0 0.00 0.00 0.00 73 1011.7
20221208161732 42 68 0.0 0.0 0.00 0.00 0.00 73 1011.7
20221208161228 42 93 0.0 0.0 0.00 0.00 0.00 71 1011.7
20221208160722 43 93 0.0 0.0 0.00 0.00 0.00 70 1011.8
20221208160216 43 93 0.0 0.0 0.00 0.00 0.00 69 1011.8
20221208160210 44 93 0.0 3.0 0.00 0.00 0.00 69 1011.8
20221208155202 44 93 0.0 3.0 0.00 0.00 0.00 68 1011.7
20221208154657 44 101 0.0 2.0 0.00 0.00 0.00 68 1011.7
20221208154154 44 102 0.0 3.0 0.00 0.00 0.00 68 1011.7
20221208153654 44 84 0.0 3.0 0.00 0.00 0.00 68 1011.7
20221208153423 44 130 0.0 2.0 0.00 0.00 0.00 68 1011.7
20221208152652 44 147 0.0 3.0 0.00 0.00 0.00 68 1011.7
20221208152152 44 143 0.0 3.0 0.00 0.00 0.00 68 1011.8
20221208151923 44 228 0.0 1.0 0.00 0.00 0.00 68 1011.8
20221208151153 44 197 0.0 4.0 0.00 0.00 0.00 68 1011.9
20221208150652 44 174 0.0 4.0 0.00 0.00 0.00 68 1011.9
20221208150423 44 199 0.0 2.0 0.00 0.00 0.00 68 1011.9
20221208145650 45 146 0.0 2.0 0.00 0.00 0.00 68 1011.9
20221208145148 45 81 0.0 6.0 0.00 0.00 0.00 67 1011.9
20221208144648 45 79 0.0 6.0 0.00 0.00 0.00 67 1011.8
20221208144147 45 103 0.0 2.0 0.00 0.00 0.00 68 1011.8
20221208143646 45 110 0.0 2.0 0.00 0.00 0.00 68 1011.8
20221208143146 45 102 0.0 1.0 0.00 0.00 0.00 68 1011.8
20221208142642 45 160 0.0 3.0 0.00 0.00 0.00 68 1011.8
20221208142413 45 217 0.0 3.0 0.00 0.00 0.00 68 1011.9
20221208141644 45 142 0.0 4.0 0.00 0.00 0.00 67 1011.9
20221208141142 45 150 0.0 4.0 0.00 0.00 0.00 67 1012.0
20221208140636 45 130 0.0 3.0 0.00 0.00 0.00 68 1012.0
20221208140130 45 104 0.0 3.0 0.00 0.00 0.00 68 1012.0
20221208135854 45 128 0.0 3.0 0.00 0.00 0.00 68 1012.1
20221208135118 45 93 0.0 1.0 0.00 0.00 0.00 69 1012.2
20221208134612 45 115 0.0 1.0 0.00 0.00 0.00 68 1012.2
20221208134111 45 95 0.0 1.0 0.00 0.00 0.00 68 1012.3
20221208133611 45 95 0.0 1.0 0.00 0.00 0.00 67 1012.4
20221208133342 46 95 0.0 1.0 0.00 0.00 0.00 67 1012.4
20221208132610 46 95 0.0 1.0 0.00 0.00 0.00 66 1012.3
20221208132342 46 95 0.0 1.0 0.00 0.00 0.00 67 1012.4
20221208131610 46 120 0.0 1.0 0.00 0.00 0.00 66 1012.4
20221208131110 46 120 0.0 1.0 0.00 0.00 0.00 66 1012.3
20221208130610 46 120 0.0 0.0 0.00 0.00 0.00 66 1012.4
20221208130110 47 131 0.0 2.0 0.00 0.00 0.00 65 1012.2
20221208125606 47 152 0.0 2.0 0.00 0.01 0.00 65 1012.3
20221208125331 47 161 0.0 2.0 0.00 0.01 0.00 64 1012.2
20221208124552 47 182 0.0 3.0 0.00 0.01 0.00 64 1012.3
20221208124046 47 235 0.0 3.0 0.00 0.01 0.00 64 1012.3
20221208123540 48 135 0.0 4.0 0.00 0.01 0.00 63 1012.3
20221208123033 48 209 0.0 4.0 0.00 0.01 0.00 63 1012.2
20221208122527 48 145 0.0 3.0 0.00 0.01 0.00 63 1012.2
20221208122022 48 218 0.0 1.0 0.00 0.01 0.00 63 1012.2
20221208121516 48 187 0.0 3.0 0.00 0.01 0.00 62 1012.2
20221208121011 48 166 0.0 3.0 0.00 0.01 0.00 62 1012.1
20221208120505 49 191 0.0 5.0 0.00 0.02 0.00 61 1012.1
20221208115958 49 154 0.0 5.0 0.00 0.03 0.00 60 1012.1
20221208115452 49 100 0.0 5.0 0.00 0.03 0.00 58 1012.0
20221208114947 49 114 0.0 5.0 0.00 0.04 0.00 57 1012.1
20221208114440 49 94 0.0 2.0 0.00 0.05 0.00 56 1012.0
20221208114205 49 92 0.0 1.0 0.00 0.10 0.00 54 1011.9
20221208113428 49 222 0.0 1.0 0.00 0.11 0.00 53 1011.9
20221208113155 50 206 0.0 1.0 0.00 0.11 0.00 52 1011.8
20221208112417 50 173 0.0 2.0 0.00 0.11 0.00 52 1011.7
20221208112143 51 173 0.0 2.0 0.00 0.11 0.00 51 1011.7
20221208111403 51 187 0.0 4.0 0.00 0.11 0.00 51 1011.5
20221208111128 51 204 0.0 4.0 0.00 0.11 0.00 50 1011.5
20221208110352 51 119 0.0 1.0 0.00 0.11 0.00 49 1011.5
20221208105846 52 118 0.0 3.0 0.00 0.11 0.00 49 1011.4
20221208105340 52 219 1.0 6.0 0.00 0.11 0.00 49 1011.3
20221208104834 52 203 1.0 6.0 0.00 0.11 0.00 48 1011.2
20221208104327 52 190 1.0 4.0 0.00 0.11 0.00 47 1011.2
20221208103822 53 171 1.0 6.0 0.00 0.11 0.00 47 1011.1
20221208103316 53 220 1.0 6.0 0.00 0.11 0.00 47 1011.0
20221208102810 53 210 1.0 6.0 0.00 0.11 0.00 47 1010.9
20221208102305 53 190 2.0 6.0 0.00 0.11 0.00 47 1010.7
20221208101801 53 178 2.0 6.0 0.00 0.11 0.00 46 1010.7
20221208101253 53 191 1.0 6.0 0.00 0.11 0.00 46 1010.6
20221208100746 53 190 1.0 9.0 0.00 0.11 0.00 45 1010.4
20221208100510 54 142 0.0 9.0 0.00 0.11 0.00 45 1010.5
20221208095740 54 185 0.0 3.0 0.00 0.11 0.00 45 1010.4
20221208095242 54 219 1.0 7.0 0.00 0.11 0.00 45 1010.3
20221208094741 54 190 2.0 7.0 0.00 0.11 0.00 44 1010.2
20221208094240 55 201 1.0 6.0 0.00 0.11 0.00 44 1010.1
20221208093740 55 246 1.0 6.0 0.00 0.11 0.00 44 1010.0
20221208093239 55 232 1.0 6.0 0.00 0.11 0.00 43 1009.8
20221208092738 55 194 1.0 6.0 0.00 0.11 0.00 43 1009.8
20221208092238 55 145 1.0 6.0 0.00 0.11 0.00 43 1009.7
20221208091737 56 138 1.0 3.0 0.00 0.11 0.00 43 1009.6
20221208091508 56 197 1.0 3.0 0.00 0.11 0.00 42 1009.6
20221208090737 57 167 1.0 5.0 0.00 0.11 0.00 42 1009.5
20221208090234 57 192 1.0 6.0 0.00 0.11 0.00 42 1009.5
20221208085732 58 192 2.0 8.0 0.00 0.11 0.00 40 1009.4
20221208085501 58 131 2.0 9.0 0.00 0.11 0.00 39 1009.3
20221208084728 59 142 2.0 9.0 0.00 0.11 0.00 38 1009.2
20221208084235 60 186 4.0 13.0 0.00 0.11 0.00 37 1008.9
20221208084228 59 190 3.0 13.0 0.00 0.11 0.00 37 1009.0
20221208083225 60 185 3.0 11.0 0.00 0.11 0.00 36 1008.9
20221208082724 60 149 3.0 9.0 0.00 0.11 0.00 36 1008.7
20221208082224 60 200 3.0 12.0 0.00 0.11 0.00 36 1008.7
20221208081724 61 198 2.0 12.0 0.00 0.11 0.00 36 1008.6
20221208081456 61 211 1.0 6.0 0.00 0.11 0.00 36 1008.4
20221208080725 61 213 2.0 8.0 0.00 0.11 0.00 36 1008.3
20221208080224 61 177 2.0 8.0 0.00 0.11 0.00 36 1008.1
20221208075724 61 214 2.0 6.0 0.00 0.11 0.00 36 1008.1
20221208075224 61 197 2.0 7.0 0.00 0.11 0.00 36 1007.9
20221208074951 62 223 2.0 7.0 0.00 0.11 0.00 35 1007.8
20221208074831 62 211 2.0 11.0 0.00 0.11 0.00 35 1007.7
20221208073721 62 223 3.0 11.0 0.00 0.11 0.00 34 1007.6
20221208073452 62 218 1.0 5.0 0.00 0.11 0.00 34 1007.5
20221208072720 62 240 1.0 5.0 0.00 0.11 0.00 34 1007.4
20221208072220 62 223 1.0 5.0 0.00 0.11 0.00 35 1007.4
20221208071720 62 168 1.0 5.0 0.00 0.11 0.00 34 1007.4
20221208071451 62 152 0.0 5.0 0.00 0.11 0.00 34 1007.3
20221208070720 62 107 0.0 4.0 0.00 0.11 0.00 33 1007.2
20221208070220 62 200 0.0 4.0 0.00 0.11 0.00 33 1007.2
20221208065720 62 207 0.0 4.0 0.00 0.11 0.00 34 1007.2
20221208065451 62 185 0.0 3.0 0.00 0.11 0.00 33 1007.1
20221208064951 62 205 1.0 5.0 0.00 0.11 0.00 33 1007.1
20221208064449 62 205 1.0 5.0 0.00 0.11 0.00 33 1007.2
20221208063717 63 228 0.0 4.0 0.00 0.11 0.00 33 1007.1
20221208063219 63 121 1.0 6.0 0.00 0.11 0.00 32 1007.0
20221208062716 62 250 2.0 7.0 0.00 0.11 0.00 33 1007.0
20221208062215 63 218 2.0 7.0 0.00 0.11 0.00 31 1007.0
20221208061717 63 227 1.0 4.0 0.00 0.11 0.00 33 1006.9
20221208061213 63 273 1.0 7.0 0.00 0.11 0.00 31 1006.9
20221208060712 64 185 1.0 7.0 0.00 0.11 0.00 31 1006.9
20221208060212 63 222 0.0 6.0 0.00 0.11 0.00 32 1006.9
20221208055707 64 211 0.0 3.0 0.00 0.11 0.00 33 1006.9
20221208055159 63 105 0.0 1.0 0.00 0.11 0.00 33 1007.0
20221208054653 63 159 2.0 9.0 0.00 0.11 0.00 32 1007.0
20221208054147 63 195 3.0 9.0 0.00 0.11 0.00 31 1007.0
20221208053641 64 217 2.0 8.0 0.00 0.11 0.00 30 1006.9
20221208053136 64 274 2.0 7.0 0.00 0.11 0.00 33 1006.8
20221208052631 63 170 4.0 11.0 0.00 0.11 0.00 33 1006.9
20221208052123 64 205 3.0 11.0 0.00 0.11 0.00 30 1006.8
20221208051618 64 208 2.0 8.0 0.00 0.11 0.00 32 1006.8
20221208051111 64 226 2.0 8.0 0.00 0.11 0.00 31 1006.8
20221208050604 65 238 2.0 8.0 0.00 0.11 0.00 34 1006.8
20221208050057 65 209 4.0 9.0 0.00 0.11 0.00 30 1006.8
20221208045822 66 235 4.0 11.0 0.00 0.11 0.00 29 1006.7
20221208045046 67 172 2.0 11.0 0.00 0.11 0.00 28 1006.7
20221208044538 67 268 1.0 7.0 0.00 0.11 0.00 29 1006.7
20221208044033 67 288 2.0 9.0 0.00 0.11 0.00 29 1006.7
20221208043526 66 244 4.0 12.0 0.00 0.11 0.00 33 1006.7
20221208043021 65 244 4.0 12.0 0.00 0.11 0.00 31 1006.7
20221208042747 64 207 4.0 12.0 0.00 0.11 0.00 32 1006.7
20221208042239 64 225 4.0 12.0 0.00 0.11 0.00 30 1006.7
20221208041734 64 237 3.0 11.0 0.00 0.11 0.00 32 1006.5
20221208040958 64 268 3.0 10.0 0.00 0.11 0.00 33 1006.5
20221208040451 64 218 2.0 10.0 0.00 0.11 0.00 32 1006.5
20221208035946 64 225 2.0 8.0 0.00 0.11 0.00 34 1006.5
20221208035439 63 215 2.0 8.0 0.00 0.11 0.00 32 1006.5
20221208035205 65 234 2.0 7.0 0.00 0.11 0.00 30 1006.7
20221208034658 66 281 2.0 7.0 0.00 0.11 0.00 30 1006.8
20221208034151 67 208 2.0 9.0 0.00 0.11 0.00 31 1006.7
20221208033416 66 265 2.0 9.0 0.00 0.11 0.00 32 1006.7
20221208032909 66 208 2.0 8.0 0.00 0.11 0.00 32 1006.8
20221208032403 65 230 4.0 11.0 0.00 0.11 0.00 33 1006.8
20221208031857 64 64 5.0 11.0 0.00 0.11 0.00 32 1006.7
20221208031351 63 236 6.0 14.0 0.00 0.11 0.00 32 1006.7
20221208030847 63 227 6.0 14.0 0.00 0.11 0.00 32 1006.5
20221208030339 64 235 5.0 12.0 0.00 0.11 0.00 31 1006.5
20221208025835 64 182 4.0 14.0 0.00 0.11 0.00 32 1006.5
20221208025327 64 237 4.0 14.0 0.00 0.11 0.00 32 1006.5
20221208024821 65 251 3.0 13.0 0.00 0.11 0.00 32 1006.5
20221208024316 65 287 4.0 14.0 0.00 0.11 0.00 34 1006.7
20221208023809 64 230 4.0 14.0 0.00 0.11 0.00 30 1006.5
20221208023303 65 167 3.0 13.0 0.00 0.11 0.00 32 1006.7
20221208022757 64 246 5.0 13.0 0.00 0.11 0.00 29 1006.8
20221208022251 64 233 4.0 14.0 0.00 0.11 0.00 31 1006.8
20221208021746 64 250 4.0 14.0 0.00 0.11 0.00 33 1006.7
20221208021510 64 199 5.0 16.0 0.00 0.11 0.00 31 1006.8
20221208020733 65 226 3.0 16.0 0.00 0.11 0.00 30 1006.7
20221208020227 64 0 4.0 12.0 0.00 0.11 0.00 32 1006.8
20221208015721 64 219 6.0 16.0 0.00 0.11 0.00 31 1006.5
20221208015215 64 172 4.0 16.0 0.00 0.11 0.00 30 1006.4
20221208014708 65 230 3.0 13.0 0.00 0.11 0.00 30 1006.5
20221208014203 65 242 2.0 10.0 0.00 0.11 0.00 29 1006.4
20221208014159 65 42 3.0 11.0 0.00 0.11 0.00 31 1006.4
20221208013151 64 199 4.0 15.0 0.00 0.11 0.00 32 1006.4
20221208012646 63 7 4.0 15.0 0.00 0.11 0.00 31 1006.3
20221208012140 64 247 3.0 12.0 0.00 0.11 0.00 31 1006.5
20221208011633 64 274 3.0 9.0 0.00 0.11 0.00 33 1006.3
20221208011127 63 323 4.0 12.0 0.00 0.11 0.00 34 1006.5
20221208010620 63 229 4.0 12.0 0.00 0.11 0.00 31 1006.3
20221208010116 62 2 5.0 13.0 0.00 0.11 0.00 32 1006.2
20221208005609 62 217 5.0 16.0 0.00 0.11 0.00 30 1006.2
20221208005103 62 267 4.0 16.0 0.00 0.11 0.00 33 1006.2
20221208004556 62 234 5.0 17.0 0.00 0.11 0.00 31 1006.2
20221208004324 62 234 5.0 17.0 0.00 0.11 0.00 30 1006.2
20221208004048 63 223 3.0 15.0 0.00 0.11 0.00 32 1006.1
20221208003038 62 171 3.0 12.0 0.00 0.11 0.00 30 1006.1
20221208002805 62 235 3.0 15.0 0.00 0.11 0.00 31 1006.1
20221208002027 62 231 4.0 15.0 0.00 0.11 0.00 32 1006.2
20221208001521 62 238 4.0 16.0 0.00 0.11 0.00 31 1006.2